| time (UTC) | temp C | wind direction | speed KPH | gust KPH | rain 1hr cm | rain 24hr cm | rain mn cm | humidity % | barometer mb |
| 20260505231037 | 27 | 0 | 0.0 | 16.1 | 0.00 | 0.00 | 0.00 | 79 | 1005.8 |
| 20260505230538 | 28 | 0 | 0.0 | 16.1 | 0.00 | 0.00 | 0.00 | 78 | 1005.8 |
| 20260505230051 | 28 | 0 | 0.0 | 19.3 | 0.00 | 0.00 | 0.00 | 78 | 1006.0 |
| 20260505225538 | 28 | 0 | 1.6 | 19.3 | 0.00 | 0.00 | 0.00 | 78 | 1006.0 |
| 20260505225038 | 28 | 0 | 0.0 | 17.7 | 0.00 | 0.00 | 0.00 | 78 | 1005.9 |
| 20260505224551 | 28 | 0 | 0.0 | 29.0 | 0.00 | 0.00 | 0.00 | 76 | 1005.8 |
| 20260505224037 | 28 | 0 | 0.0 | 29.0 | 0.00 | 0.00 | 0.00 | 78 | 1005.9 |
| 20260505223537 | 28 | 219 | 0.0 | 14.5 | 0.00 | 0.00 | 0.00 | 77 | 1006.0 |
| 20260505223049 | 28 | 215 | 0.0 | 12.9 | 0.00 | 0.00 | 0.00 | 75 | 1005.9 |
| 20260505222539 | 28 | 0 | 0.0 | 14.5 | 0.00 | 0.00 | 0.00 | 78 | 1005.9 |
| 20260505222038 | 28 | 0 | 0.0 | 14.5 | 0.00 | 0.00 | 0.00 | 77 | 1005.9 |
| 20260505221550 | 28 | 0 | 0.0 | 17.7 | 0.00 | 0.00 | 0.00 | 76 | 1006.0 |
| 20260505221038 | 28 | 0 | 0.0 | 17.7 | 0.00 | 0.00 | 0.00 | 75 | 1005.9 |
| 20260505220537 | 29 | 0 | 0.0 | 17.7 | 0.00 | 0.00 | 0.00 | 76 | 1006.0 |
| 20260505220059 | 28 | 0 | 0.0 | 17.7 | 0.00 | 0.00 | 0.00 | 77 | 1005.9 |
| 20260505215537 | 29 | 0 | 0.0 | 19.3 | 0.00 | 0.00 | 0.00 | 77 | 1006.0 |
| 20260505215037 | 28 | 0 | 0.0 | 19.3 | 0.00 | 0.00 | 0.00 | 76 | 1006.0 |
| 20260505214556 | 29 | 182 | 0.0 | 19.3 | 0.00 | 0.00 | 0.00 | 75 | 1006.0 |
| 20260505214038 | 29 | 0 | 0.0 | 25.7 | 0.00 | 0.00 | 0.00 | 75 | 1006.0 |
| 20260505213537 | 30 | 0 | 1.6 | 25.7 | 0.00 | 0.00 | 0.00 | 72 | 1006.2 |
| 20260505213049 | 30 | 0 | 0.0 | 19.3 | 0.00 | 0.00 | 0.00 | 73 | 1006.1 |
| 20260505212538 | 30 | 182 | 1.6 | 24.1 | 0.00 | 0.00 | 0.00 | 74 | 1006.2 |
| 20260505212038 | 30 | 0 | 1.6 | 24.1 | 0.00 | 0.00 | 0.00 | 72 | 1006.2 |
| 20260505211546 | 30 | 0 | 3.2 | 24.1 | 0.00 | 0.00 | 0.00 | 74 | 1006.4 |
| 20260505211038 | 30 | 242 | 0.0 | 17.7 | 0.00 | 0.00 | 0.00 | 72 | 1006.4 |
| 20260505210537 | 30 | 0 | 0.0 | 16.1 | 0.00 | 0.00 | 0.00 | 73 | 1006.5 |
| 20260505210050 | 30 | 142 | 1.6 | 19.3 | 0.00 | 0.00 | 0.00 | 72 | 1006.7 |
| 20260505205538 | 30 | 0 | 0.0 | 19.3 | 0.00 | 0.00 | 0.00 | 74 | 1006.7 |
| 20260505205038 | 30 | 0 | 0.0 | 19.3 | 0.00 | 0.00 | 0.00 | 73 | 1006.7 |
| 20260505204545 | 30 | 186 | 0.0 | 17.7 | 0.00 | 0.00 | 0.00 | 75 | 1006.9 |
| 20260505204040 | 30 | 0 | 1.6 | 17.7 | 0.00 | 0.00 | 0.00 | 73 | 1006.8 |
| 20260505203537 | 30 | 204 | 0.0 | 16.1 | 0.00 | 0.00 | 0.00 | 74 | 1007.0 |
| 20260505203106 | 30 | 0 | 0.0 | 16.1 | 0.00 | 0.00 | 0.00 | 73 | 1007.1 |
| 20260505202538 | 31 | 0 | 0.0 | 9.7 | 0.00 | 0.00 | 0.00 | 74 | 1007.1 |
| 20260505202038 | 30 | 0 | 0.0 | 19.3 | 0.00 | 0.00 | 0.00 | 75 | 1007.2 |
| 20260505201557 | 29 | 0 | 0.0 | 19.3 | 0.00 | 0.00 | 0.00 | 76 | 1007.3 |
| 20260505201038 | 29 | 0 | 0.0 | 22.5 | 0.00 | 0.00 | 0.00 | 74 | 1007.4 |
| 20260505200538 | 29 | 209 | 3.2 | 22.5 | 0.00 | 0.00 | 0.00 | 77 | 1007.5 |
| 20260505200052 | 28 | 0 | 0.0 | 17.7 | 0.00 | 0.00 | 0.00 | 77 | 1007.6 |
| 20260505195539 | 29 | 0 | 0.0 | 19.3 | 0.00 | 0.00 | 0.00 | 74 | 1007.4 |
| 20260505195037 | 30 | 0 | 1.6 | 19.3 | 0.00 | 0.00 | 0.00 | 72 | 1007.5 |
| 20260505194547 | 30 | 171 | 1.6 | 27.4 | 0.00 | 0.00 | 0.00 | 75 | 1007.5 |
| 20260505194038 | 28 | 0 | 0.0 | 27.4 | 0.00 | 0.00 | 0.00 | 76 | 1007.7 |
| 20260505193537 | 29 | 0 | 3.2 | 27.4 | 0.00 | 0.00 | 0.00 | 75 | 1007.6 |
| 20260505193045 | 29 | 0 | 3.2 | 17.7 | 0.00 | 0.00 | 0.00 | 76 | 1007.7 |
| 20260505192537 | 29 | 0 | 3.2 | 20.9 | 0.00 | 0.00 | 0.00 | 75 | 1007.7 |
| 20260505192042 | 30 | 0 | 3.2 | 20.9 | 0.00 | 0.00 | 0.00 | 74 | 1007.8 |
| 20260505191603 | 30 | 0 | 1.6 | 19.3 | 0.00 | 0.00 | 0.00 | 72 | 1007.8 |
| 20260505191038 | 29 | 0 | 6.4 | 19.3 | 0.00 | 0.00 | 0.00 | 74 | 1007.8 |
| 20260505190538 | 29 | 0 | 3.2 | 19.3 | 0.00 | 0.00 | 0.00 | 75 | 1007.9 |
| 20260505190053 | 29 | 0 | 1.6 | 19.3 | 0.00 | 0.00 | 0.00 | 75 | 1007.9 |
| 20260505185538 | 29 | 0 | 1.6 | 25.7 | 0.00 | 0.00 | 0.00 | 75 | 1008.0 |
| 20260505185037 | 28 | 0 | 4.8 | 25.7 | 0.00 | 0.00 | 0.00 | 76 | 1008.0 |
| 20260505184548 | 28 | 203 | 3.2 | 19.3 | 0.00 | 0.00 | 0.00 | 77 | 1007.9 |
| 20260505184038 | 28 | 0 | 0.0 | 19.3 | 0.00 | 0.00 | 0.00 | 77 | 1007.9 |
| 20260505183539 | 28 | 0 | 1.6 | 20.9 | 0.00 | 0.00 | 0.00 | 75 | 1008.1 |
| 20260505183047 | 30 | 0 | 3.2 | 20.9 | 0.00 | 0.00 | 0.00 | 75 | 1008.0 |
| 20260505182537 | 28 | 0 | 0.0 | 16.1 | 0.00 | 0.00 | 0.00 | 76 | 1008.1 |
| 20260505182037 | 28 | 0 | 0.0 | 24.1 | 0.00 | 0.00 | 0.00 | 76 | 1008.1 |
| 20260505181550 | 29 | 0 | 4.8 | 24.1 | 0.00 | 0.00 | 0.00 | 75 | 1008.2 |
| 20260505181038 | 29 | 0 | 4.8 | 32.2 | 0.00 | 0.00 | 0.00 | 77 | 1008.1 |
| 20260505180537 | 28 | 0 | 0.0 | 32.2 | 0.00 | 0.00 | 0.00 | 78 | 1008.3 |
| 20260505180100 | 27 | 0 | 3.2 | 30.6 | 0.00 | 0.00 | 0.00 | 78 | 1008.3 |
| 20260505175538 | 28 | 186 | 3.2 | 25.7 | 0.00 | 0.00 | 0.00 | 76 | 1008.3 |
| 20260505175038 | 27 | 0 | 6.4 | 25.7 | 0.00 | 0.00 | 0.00 | 80 | 1008.4 |
| 20260505174547 | 27 | 0 | 8.0 | 24.1 | 0.00 | 0.00 | 0.00 | 79 | 1008.5 |
| 20260505174038 | 28 | 0 | 1.6 | 22.5 | 0.00 | 0.00 | 0.00 | 78 | 1008.6 |
| 20260505173537 | 27 | 192 | 3.2 | 22.5 | 0.00 | 0.00 | 0.00 | 80 | 1008.7 |
| 20260505173051 | 27 | 0 | 4.8 | 22.5 | 0.00 | 0.00 | 0.00 | 78 | 1008.7 |
| 20260505172537 | 27 | 0 | 6.4 | 22.5 | 0.00 | 0.00 | 0.00 | 80 | 1008.7 |
| 20260505172038 | 27 | 233 | 3.2 | 25.7 | 0.00 | 0.00 | 0.00 | 82 | 1008.8 |
| 20260505171550 | 26 | 0 | 6.4 | 25.7 | 0.00 | 0.00 | 0.00 | 81 | 1008.8 |
| 20260505171038 | 27 | 199 | 0.0 | 24.1 | 0.00 | 0.00 | 0.00 | 79 | 1009.0 |
| 20260505170537 | 27 | 216 | 6.4 | 24.1 | 0.00 | 0.00 | 0.00 | 80 | 1008.8 |
| 20260505170103 | 27 | 0 | 3.2 | 24.1 | 0.00 | 0.00 | 0.00 | 81 | 1008.8 |
| 20260505165537 | 27 | 195 | 1.6 | 24.1 | 0.00 | 0.00 | 0.00 | 81 | 1008.8 |
| 20260505165040 | 27 | 216 | 4.8 | 24.1 | 0.00 | 0.00 | 0.00 | 82 | 1009.0 |
| 20260505164553 | 26 | 232 | 1.6 | 19.3 | 0.00 | 0.00 | 0.00 | 83 | 1009.1 |
| 20260505164037 | 26 | 0 | 3.2 | 19.3 | 0.00 | 0.00 | 0.00 | 84 | 1009.0 |
| 20260505163538 | 25 | 0 | 0.0 | 17.7 | 0.00 | 0.00 | 0.00 | 86 | 1008.9 |
| 20260505163049 | 25 | 0 | 1.6 | 24.1 | 0.00 | 0.00 | 0.00 | 86 | 1009.3 |
| 20260505162538 | 25 | 0 | 0.0 | 24.1 | 0.00 | 0.00 | 0.00 | 86 | 1009.1 |
| 20260505162038 | 25 | 201 | 3.2 | 22.5 | 0.00 | 0.00 | 0.00 | 86 | 1009.2 |
| 20260505161546 | 25 | 0 | 1.6 | 20.9 | 0.00 | 0.00 | 0.00 | 86 | 1009.1 |
| 20260505161038 | 25 | 214 | 0.0 | 22.5 | 0.00 | 0.00 | 0.00 | 86 | 1009.3 |
| 20260505160538 | 25 | 205 | 1.6 | 22.5 | 0.00 | 0.00 | 0.00 | 86 | 1009.4 |
| 20260505153100 | 24 | 0 | 1.6 | 19.3 | 0.00 | 0.00 | 0.00 | 88 | 1009.0 |
| 20260505152538 | 23 | 0 | 0.0 | 19.3 | 0.00 | 0.00 | 0.00 | 88 | 1008.9 |
| 20260505152039 | 23 | 194 | 1.6 | 19.3 | 0.00 | 0.00 | 0.00 | 88 | 1008.9 |
| 20260505151602 | 23 | 236 | 3.2 | 19.3 | 0.00 | 0.00 | 0.00 | 88 | 1009.0 |
| 20260505151038 | 23 | 0 | 1.6 | 29.0 | 0.00 | 0.00 | 0.00 | 89 | 1009.1 |
| 20260505150542 | 23 | 182 | 3.2 | 29.0 | 0.00 | 0.00 | 0.00 | 89 | 1009.0 |
| 20260505140537 | 22 | 0 | 3.2 | 17.7 | 0.00 | 0.00 | 0.00 | 91 | 1008.8 |
| 20260505125037 | 21 | 0 | 0.0 | 11.3 | 0.00 | 0.00 | 0.00 | 92 | 1008.3 |
| 20260505124554 | 21 | 0 | 0.0 | 0.0 | 0.00 | 0.00 | 0.00 | 92 | 1008.3 |
| 20260505124037 | 21 | 0 | 0.0 | 0.0 | 0.00 | 0.00 | 0.00 | 92 | 1008.3 |
| 20260505123538 | 21 | 0 | 0.0 | 0.0 | 0.00 | 0.00 | 0.00 | 92 | 1008.4 |
| 20260505123049 | 21 | 0 | 0.0 | 1.6 | 0.00 | 0.00 | 0.00 | 92 | 1008.5 |
| 20260505122540 | 21 | 0 | 0.0 | 11.3 | 0.00 | 0.00 | 0.00 | 91 | 1008.5 |
| 20260505122038 | 21 | 0 | 0.0 | 12.9 | 0.00 | 0.00 | 0.00 | 91 | 1008.2 |
| 20260505121603 | 21 | 0 | 0.0 | 12.9 | 0.00 | 0.00 | 0.00 | 91 | 1008.0 |
| 20260505121037 | 21 | 0 | 0.0 | 12.9 | 0.00 | 0.00 | 0.00 | 91 | 1007.8 |
| 20260505120537 | 21 | 0 | 0.0 | 14.5 | 0.00 | 0.00 | 0.00 | 91 | 1007.9 |
| 20260505120046 | 21 | 0 | 0.0 | 14.5 | 0.00 | 0.00 | 0.00 | 91 | 1007.8 |
| 20260505115540 | 21 | 0 | 0.0 | 9.7 | 0.00 | 0.00 | 0.00 | 91 | 1007.9 |
| 20260505115037 | 21 | 0 | 0.0 | 9.7 | 0.00 | 0.00 | 0.00 | 91 | 1008.2 |
| 20260505114550 | 21 | 0 | 0.0 | 17.7 | 0.00 | 0.00 | 0.00 | 91 | 1008.0 |
| 20260505114038 | 21 | 0 | 0.0 | 17.7 | 0.00 | 0.00 | 0.00 | 91 | 1008.1 |
| 20260505113538 | 21 | 0 | 0.0 | 12.9 | 0.00 | 0.00 | 0.00 | 91 | 1008.0 |
| 20260505113053 | 21 | 0 | 0.0 | 12.9 | 0.00 | 0.00 | 0.00 | 91 | 1008.0 |
| 20260505112538 | 21 | 0 | 0.0 | 14.5 | 0.00 | 0.00 | 0.00 | 91 | 1008.1 |
| 20260505112038 | 21 | 0 | 0.0 | 14.5 | 0.00 | 0.00 | 0.00 | 91 | 1008.0 |
| 20260505111553 | 21 | 0 | 0.0 | 0.0 | 0.00 | 0.00 | 0.00 | 91 | 1007.8 |
| 20260505111038 | 20 | 0 | 0.0 | 0.0 | 0.00 | 0.00 | 0.00 | 91 | 1008.0 |
| 20260505110541 | 20 | 0 | 0.0 | 0.0 | 0.00 | 0.00 | 0.00 | 91 | 1007.9 |
| 20260505102038 | 20 | 0 | 0.0 | 6.4 | 0.00 | 0.00 | 0.00 | 91 | 1007.8 |
| 20260505101555 | 20 | 0 | 0.0 | 6.4 | 0.00 | 0.00 | 0.00 | 92 | 1007.9 |
| 20260505101038 | 20 | 0 | 0.0 | 0.0 | 0.00 | 0.00 | 0.00 | 91 | 1008.0 |
| 20260505100538 | 20 | 0 | 0.0 | 0.0 | 0.00 | 0.00 | 0.00 | 91 | 1008.0 |
| 20260505100050 | 20 | 0 | 0.0 | 0.0 | 0.00 | 0.00 | 0.00 | 91 | 1008.0 |
| 20260505095538 | 20 | 0 | 0.0 | 0.0 | 0.00 | 0.00 | 0.00 | 91 | 1008.1 |
| 20260505095037 | 20 | 0 | 0.0 | 0.0 | 0.00 | 0.00 | 0.00 | 91 | 1008.0 |
| 20260505094545 | 20 | 0 | 0.0 | 0.0 | 0.00 | 0.00 | 0.00 | 91 | 1008.0 |
| 20260505094038 | 20 | 0 | 0.0 | 0.0 | 0.00 | 0.00 | 0.00 | 91 | 1008.0 |
| 20260505093539 | 20 | 0 | 0.0 | 0.0 | 0.00 | 0.00 | 0.00 | 91 | 1008.0 |
| 20260505093053 | 20 | 0 | 0.0 | 0.0 | 0.00 | 0.00 | 0.00 | 91 | 1008.1 |
| 20260505092538 | 20 | 0 | 0.0 | 4.8 | 0.00 | 0.00 | 0.00 | 91 | 1008.1 |
| 20260505092038 | 20 | 0 | 0.0 | 4.8 | 0.00 | 0.00 | 0.00 | 91 | 1008.2 |
| 20260505091550 | 20 | 0 | 0.0 | 0.0 | 0.00 | 0.00 | 0.00 | 91 | 1008.2 |
| 20260505091037 | 20 | 0 | 0.0 | 0.0 | 0.00 | 0.00 | 0.00 | 91 | 1008.2 |
| 20260505090538 | 20 | 0 | 0.0 | 0.0 | 0.00 | 0.00 | 0.00 | 91 | 1008.3 |
| 20260505090101 | 20 | 0 | 0.0 | 0.0 | 0.00 | 0.00 | 0.00 | 91 | 1008.1 |
| 20260505085538 | 20 | 0 | 0.0 | 0.0 | 0.00 | 0.00 | 0.00 | 91 | 1008.2 |
| 20260505085038 | 20 | 0 | 0.0 | 0.0 | 0.00 | 0.00 | 0.00 | 91 | 1008.5 |
| 20260505084552 | 20 | 0 | 0.0 | 0.0 | 0.00 | 0.00 | 0.00 | 91 | 1008.5 |
| 20260505084038 | 20 | 0 | 0.0 | 0.0 | 0.00 | 0.00 | 0.00 | 91 | 1008.5 |
| 20260505083537 | 20 | 0 | 0.0 | 0.0 | 0.00 | 0.00 | 0.00 | 91 | 1008.5 |
| 20260505083055 | 20 | 0 | 0.0 | 0.0 | 0.00 | 0.00 | 0.00 | 91 | 1008.7 |
| 20260505082538 | 20 | 0 | 0.0 | 0.0 | 0.00 | 0.00 | 0.00 | 91 | 1008.6 |
| 20260505082038 | 20 | 0 | 0.0 | 0.0 | 0.00 | 0.00 | 0.00 | 91 | 1008.8 |
| 20260505081556 | 20 | 0 | 0.0 | 0.0 | 0.00 | 0.00 | 0.00 | 91 | 1008.9 |
| 20260505081038 | 20 | 0 | 0.0 | 0.0 | 0.00 | 0.00 | 0.00 | 91 | 1009.0 |
| 20260505080539 | 20 | 0 | 0.0 | 0.0 | 0.00 | 0.00 | 0.00 | 90 | 1008.9 |
| 20260505080053 | 20 | 0 | 0.0 | 12.9 | 0.00 | 0.00 | 0.00 | 90 | 1009.1 |
| 20260505075542 | 20 | 0 | 0.0 | 14.5 | 0.00 | 0.00 | 0.00 | 90 | 1009.2 |
| 20260505075039 | 20 | 0 | 0.0 | 14.5 | 0.00 | 0.00 | 0.00 | 90 | 1009.0 |
| 20260505074545 | 20 | 0 | 0.0 | 0.0 | 0.00 | 0.00 | 0.00 | 90 | 1008.9 |
| 20260505074038 | 20 | 0 | 0.0 | 4.8 | 0.00 | 0.00 | 0.00 | 90 | 1008.9 |
| 20260505073538 | 20 | 0 | 0.0 | 4.8 | 0.00 | 0.00 | 0.00 | 90 | 1009.0 |
| 20260505073048 | 20 | 0 | 0.0 | 0.0 | 0.00 | 0.00 | 0.00 | 89 | 1009.3 |
| 20260505072542 | 20 | 0 | 0.0 | 0.0 | 0.00 | 0.00 | 0.00 | 89 | 1009.3 |
| 20260505072039 | 20 | 0 | 0.0 | 0.0 | 0.00 | 0.00 | 0.00 | 89 | 1009.1 |
| 20260505071545 | 20 | 0 | 0.0 | 0.0 | 0.00 | 0.00 | 0.00 | 89 | 1009.3 |
| 20260505071038 | 20 | 0 | 0.0 | 0.0 | 0.00 | 0.00 | 0.00 | 89 | 1009.4 |
| 20260505070538 | 20 | 0 | 0.0 | 0.0 | 0.00 | 0.00 | 0.00 | 89 | 1009.6 |
| 20260505070051 | 20 | 0 | 0.0 | 0.0 | 0.00 | 0.00 | 0.00 | 89 | 1009.7 |
| 20260505065538 | 20 | 0 | 0.0 | 0.0 | 0.00 | 0.00 | 0.00 | 89 | 1009.7 |
| 20260505065038 | 20 | 0 | 0.0 | 0.0 | 0.00 | 0.00 | 0.00 | 89 | 1009.9 |
| 20260505064544 | 20 | 0 | 0.0 | 0.0 | 0.00 | 0.00 | 0.00 | 89 | 1009.9 |
| 20260505064037 | 20 | 0 | 0.0 | 0.0 | 0.00 | 0.00 | 0.00 | 89 | 1009.9 |
| 20260505063537 | 20 | 0 | 0.0 | 0.0 | 0.00 | 0.00 | 0.00 | 88 | 1009.8 |
| 20260505063048 | 20 | 0 | 0.0 | 4.8 | 0.00 | 0.00 | 0.00 | 88 | 1009.9 |
| 20260505062537 | 20 | 0 | 0.0 | 8.0 | 0.00 | 0.00 | 0.00 | 88 | 1009.9 |
| 20260505062037 | 20 | 0 | 0.0 | 8.0 | 0.00 | 0.00 | 0.00 | 88 | 1010.0 |
| 20260505061548 | 20 | 0 | 0.0 | 17.7 | 0.00 | 0.00 | 0.00 | 88 | 1009.9 |
| 20260505061038 | 20 | 0 | 0.0 | 17.7 | 0.00 | 0.00 | 0.00 | 88 | 1009.8 |
| 20260505060538 | 20 | 0 | 0.0 | 1.6 | 0.00 | 0.00 | 0.00 | 88 | 1009.7 |
| 20260505060052 | 20 | 0 | 0.0 | 11.3 | 0.00 | 0.00 | 0.00 | 88 | 1009.6 |
| 20260505055538 | 20 | 0 | 0.0 | 11.3 | 0.00 | 0.00 | 0.00 | 88 | 1009.7 |
| 20260505055038 | 20 | 0 | 0.0 | 6.4 | 0.00 | 0.00 | 0.00 | 88 | 1009.7 |
| 20260505054551 | 20 | 0 | 0.0 | 8.0 | 0.00 | 0.00 | 0.00 | 88 | 1009.8 |
| 20260505054038 | 20 | 0 | 0.0 | 8.0 | 0.00 | 0.00 | 0.00 | 88 | 1009.7 |
| 20260505053537 | 20 | 0 | 0.0 | 12.9 | 0.00 | 0.00 | 0.00 | 87 | 1009.8 |
| 20260505053052 | 20 | 188 | 0.0 | 14.5 | 0.00 | 0.00 | 0.00 | 87 | 1009.7 |
| 20260505052537 | 20 | 155 | 0.0 | 16.1 | 0.00 | 0.00 | 0.00 | 87 | 1009.7 |
| 20260505052038 | 20 | 0 | 0.0 | 16.1 | 0.00 | 0.00 | 0.00 | 87 | 1009.7 |
| 20260505051546 | 20 | 0 | 0.0 | 17.7 | 0.00 | 0.00 | 0.00 | 87 | 1009.8 |
| 20260505051039 | 20 | 0 | 0.0 | 17.7 | 0.00 | 0.00 | 0.00 | 87 | 1009.8 |
| 20260505050538 | 20 | 0 | 0.0 | 17.7 | 0.00 | 0.00 | 0.00 | 87 | 1010.0 |
| 20260505041548 | 21 | 0 | 1.6 | 17.7 | 0.00 | 0.00 | 0.00 | 84 | 1010.1 |
| 20260505041038 | 21 | 0 | 0.0 | 11.3 | 0.00 | 0.00 | 0.00 | 84 | 1010.2 |
| 20260505040538 | 21 | 0 | 0.0 | 17.7 | 0.00 | 0.00 | 0.00 | 84 | 1010.2 |
| 20260505040049 | 21 | 0 | 0.0 | 17.7 | 0.00 | 0.00 | 0.00 | 84 | 1010.2 |
| 20260505035539 | 21 | 0 | 0.0 | 17.7 | 0.00 | 0.00 | 0.00 | 83 | 1010.1 |
| 20260505035041 | 21 | 211 | 0.0 | 17.7 | 0.00 | 0.00 | 0.00 | 83 | 1010.1 |
| 20260505034546 | 21 | 184 | 3.2 | 17.7 | 0.00 | 0.00 | 0.00 | 83 | 1009.9 |
| 20260505034038 | 21 | 0 | 0.0 | 11.3 | 0.00 | 0.00 | 0.00 | 83 | 1010.0 |
| 20260505033540 | 21 | 0 | 0.0 | 17.7 | 0.00 | 0.00 | 0.00 | 83 | 1010.1 |
| 20260505033105 | 21 | 0 | 0.0 | 20.9 | 0.00 | 0.00 | 0.00 | 83 | 1010.1 |
| 20260505032537 | 21 | 0 | 1.6 | 20.9 | 0.00 | 0.00 | 0.00 | 83 | 1010.1 |
| 20260505032038 | 21 | 0 | 1.6 | 24.1 | 0.00 | 0.00 | 0.00 | 82 | 1010.1 |
| 20260505031549 | 21 | 0 | 0.0 | 24.1 | 0.00 | 0.00 | 0.00 | 82 | 1010.0 |
| 20260505031040 | 22 | 200 | 0.0 | 20.9 | 0.00 | 0.00 | 0.00 | 82 | 1010.0 |
| 20260505030538 | 22 | 202 | 1.6 | 20.9 | 0.00 | 0.00 | 0.00 | 82 | 1009.9 |
| 20260505030046 | 22 | 204 | 1.6 | 19.3 | 0.00 | 0.00 | 0.00 | 82 | 1010.1 |
| 20260505025538 | 22 | 0 | 1.6 | 20.9 | 0.00 | 0.00 | 0.00 | 82 | 1009.9 |
| 20260505025040 | 22 | 0 | 0.0 | 20.9 | 0.00 | 0.00 | 0.00 | 82 | 1009.9 |
| 20260505024547 | 22 | 155 | 0.0 | 16.1 | 0.00 | 0.00 | 0.00 | 81 | 1010.0 |
| 20260505024038 | 22 | 0 | 0.0 | 17.7 | 0.00 | 0.00 | 0.00 | 81 | 1009.8 |
| 20260505023538 | 22 | 0 | 1.6 | 19.3 | 0.00 | 0.00 | 0.00 | 81 | 1009.7 |
| 20260505023059 | 22 | 203 | 1.6 | 19.3 | 0.00 | 0.00 | 0.00 | 82 | 1009.8 |
| 20260505022538 | 22 | 0 | 0.0 | 16.1 | 0.00 | 0.00 | 0.00 | 81 | 1009.8 |
| 20260505022040 | 22 | 0 | 0.0 | 16.1 | 0.00 | 0.00 | 0.00 | 81 | 1009.8 |
| 20260505021552 | 22 | 0 | 0.0 | 1.6 | 0.00 | 0.00 | 0.00 | 81 | 1009.7 |
| 20260505021038 | 22 | 0 | 0.0 | 9.7 | 0.00 | 0.00 | 0.00 | 81 | 1009.7 |
| 20260505020538 | 22 | 0 | 0.0 | 9.7 | 0.00 | 0.00 | 0.00 | 80 | 1009.6 |
| 20260505020051 | 22 | 0 | 0.0 | 16.1 | 0.00 | 0.00 | 0.00 | 80 | 1009.6 |
| 20260505015538 | 22 | 0 | 0.0 | 16.1 | 0.00 | 0.00 | 0.00 | 79 | 1009.4 |
| 20260505015040 | 22 | 0 | 0.0 | 9.7 | 0.00 | 0.00 | 0.00 | 79 | 1009.4 |
| 20260505014545 | 23 | 0 | 0.0 | 6.4 | 0.00 | 0.00 | 0.00 | 79 | 1009.4 |
| 20260505014037 | 23 | 0 | 0.0 | 16.1 | 0.00 | 0.00 | 0.00 | 78 | 1009.3 |
| 20260505013537 | 23 | 0 | 0.0 | 16.1 | 0.00 | 0.00 | 0.00 | 78 | 1009.4 |
| 20260505013045 | 23 | 0 | 0.0 | 16.1 | 0.00 | 0.00 | 0.00 | 78 | 1009.4 |
| 20260505012538 | 23 | 0 | 0.0 | 14.5 | 0.00 | 0.00 | 0.00 | 77 | 1009.4 |
| 20260505012038 | 23 | 0 | 0.0 | 17.7 | 0.00 | 0.00 | 0.00 | 77 | 1009.4 |
| 20260505011544 | 23 | 0 | 0.0 | 20.9 | 0.00 | 0.00 | 0.00 | 77 | 1009.4 |
| 20260505011038 | 23 | 0 | 0.0 | 20.9 | 0.00 | 0.00 | 0.00 | 77 | 1009.3 |
| 20260505010538 | 23 | 0 | 1.6 | 22.5 | 0.00 | 0.00 | 0.00 | 76 | 1009.3 |
| 20260505010044 | 23 | 0 | 0.0 | 22.5 | 0.00 | 0.00 | 0.00 | 76 | 1009.1 |
| 20260505005538 | 23 | 0 | 1.6 | 22.5 | 0.00 | 0.00 | 0.00 | 75 | 1009.4 |
| 20260505005038 | 23 | 0 | 1.6 | 19.3 | 0.00 | 0.00 | 0.00 | 75 | 1009.1 |
| 20260505004550 | 24 | 170 | 0.0 | 16.1 | 0.00 | 0.00 | 0.00 | 75 | 1009.3 |
| 20260505004037 | 24 | 0 | 0.0 | 14.5 | 0.00 | 0.00 | 0.00 | 75 | 1009.3 |
| 20260505003537 | 24 | 0 | 0.0 | 14.5 | 0.00 | 0.00 | 0.00 | 75 | 1009.2 |
| 20260505003048 | 24 | 0 | 0.0 | 9.7 | 0.00 | 0.00 | 0.00 | 75 | 1009.4 |
| 20260505002537 | 24 | 0 | 0.0 | 9.7 | 0.00 | 0.00 | 0.00 | 74 | 1009.5 |
| 20260505002037 | 25 | 0 | 0.0 | 9.7 | 0.00 | 0.00 | 0.00 | 74 | 1009.6 |
| 20260505001545 | 25 | 0 | 0.0 | 8.0 | 0.00 | 0.00 | 0.00 | 74 | 1009.7 |
| 20260505001038 | 25 | 0 | 0.0 | 8.0 | 0.00 | 0.00 | 0.00 | 73 | 1009.5 |
| 20260505000541 | 25 | 0 | 0.0 | 24.1 | 0.00 | 0.00 | 0.00 | 73 | 1009.5 |
| 20260505000047 | 25 | 0 | 0.0 | 24.1 | 0.00 | 0.00 | 0.00 | 73 | 1009.5 |
| 20260504235538 | 25 | 0 | 0.0 | 19.3 | 0.00 | 0.00 | 0.00 | 72 | 1009.6 |
| 20260504235039 | 25 | 0 | 1.6 | 22.5 | 0.00 | 0.00 | 0.00 | 72 | 1009.5 |
| 20260504234614 | 25 | 157 | 0.0 | 22.5 | 0.00 | 0.00 | 0.00 | 71 | 1009.7 |
| 20260504234038 | 25 | 0 | 1.6 | 22.5 | 0.00 | 0.00 | 0.00 | 71 | 1009.5 |
| 20260504233538 | 25 | 218 | 1.6 | 27.4 | 0.00 | 0.00 | 0.00 | 71 | 1009.6 |
| 20260504233051 | 26 | 174 | 1.6 | 27.4 | 0.00 | 0.00 | 0.00 | 71 | 1009.7 |
| 20260504232539 | 26 | 0 | 0.0 | 20.9 | 0.00 | 0.00 | 0.00 | 69 | 1009.6 |
| 20260504232038 | 26 | 0 | 3.2 | 20.9 | 0.00 | 0.00 | 0.00 | 70 | 1009.8 |
| 20260504231554 | 26 | 0 | 1.6 | 27.4 | 0.00 | 0.00 | 0.00 | 68 | 1009.6 |